Theta_e
296 296 297 297 297 298 297 297 298 299 301 302 303 304 304 304 305 306 307 309 312 314 326 332 336 339 343 345 346 346 346 346 343 343 344 345 344 343 342 340 340 339 339
294 294 295 295 295 295 295 296 296 297 298 300 301 302 302 303 304 305 305 307 311 312 313 325 333 336 339 343 344 346 346 345 344 342 342 343 343 342 340 339 339 338 338
292 292 293 293 293 294 294 295 295 296 296 297 298 299 300 302 303 303 304 305 307 309 311 312 320 332 335 337 343 344 345 345 343 342 342 342 342 341 340 339 338 337 336
291 291 291 292 292 292 293 293 293 293 294 294 295 296 297 299 301 302 304 305 305 306 309 312 317 324 331 334 337 342 343 343 343 342 341 341 341 341 339 338 337 336 337
290 290 290 291 291 290 291 291 291 292 292 293 294 295 296 297 299 300 302 302 303 305 306 308 310 311 325 331 333 336 342 343 342 341 340 340 341 341 339 338 336 336 337
289 289 289 289 290 289 290 290 290 291 291 292 292 291 294 297 299 299 299 300 302 303 305 305 309 308 313 326 331 333 337 341 341 341 340 340 340 340 338 337 336 336 336
288 288 288 288 289 288 288 288 289 289 290 290 289 292 293 296 297 299 300 301 302 303 304 306 308 310 312 323 329 331 334 339 341 341 340 340 340 340 339 337 336 335 335
287 286 286 287 287 287 287 288 288 288 288 290 287 287 288 291 298 296 296 297 300 302 304 305 307 310 312 317 325 329 332 336 339 341 340 339 340 340 339 337 337 336 335
286 286 286 286 286 287 286 286 287 286 284 287 288 287 285 285 289 293 294 295 296 299 302 303 305 309 313 315 318 325 327 331 335 337 340 339 339 341 339 338 337 336 335
285 285 285 285 285 286 285 286 285 285 285 283 286 287 288 287 284 285 291 293 294 295 298 301 303 304 306 310 310 314 318 324 328 331 333 337 339 340 340 339 337 336 335
285 284 284 284 284 285 285 285 284 284 285 283 283 284 285 285 287 285 283 286 291 294 296 297 301 303 304 307 307 307 310 319 321 323 326 330 334 337 340 338 337 336 334
283 283 283 283 283 283 283 284 284 283 283 283 283 283 282 283 283 283 283 284 285 288 291 295 297 303 304 304 303 302 305 307 315 320 322 324 327 330 334 338 336 335 334
281 282 282 281 282 282 282 282 282 282 282 282 282 282 284 284 283 283 282 282 281 286 289 293 296 299 302 306 307 301 302 306 309 318 320 321 323 326 327 323 334 333 331
280 280 280 280 280 280 280 281 281 281 281 281 281 281 282 282 283 283 282 281 280 282 285 286 293 295 301 304 302 299 303 302 306 310 320 320 322 323 323 325 331 329 328
278 278 278 278 278 279 279 279 279 279 280 280 280 281 281 282 282 282 282 281 279 275 278 284 288 296 299 302 302 305 304 302 306 308 314 319 319 321 324 327 328 327 328
277 276 276 276 276 277 277 277 277 278 278 279 279 279 279 280 280 281 281 280 280 279 277 284 285 289 294 298 299 302 304 299 302 304 306 317 317 318 321 324 324 326 326
275 275 275 274 274 274 275 275 275 275 275 275 276 277 277 278 278 279 279 279 280 279 275 279 284 290 289 294 300 302 301 301 301 302 303 315 314 316 318 321 322 323 323
274 273 273 272 272 272 273 272 272 272 272 272 272 273 274 275 275 277 277 277 277 278 277 275 283 285 287 290 299 298 301 302 302 302 303 312 314 315 317 318 318 318 318
272 272 271 271 270 270 270 270 270 270 270 270 270 270 271 272 273 274 274 275 276 276 277 276 278 285 286 291 297 298 298 298 299 300 303 304 312 313 315 317 316 315 314
270 270 270 269 269 269 269 269 269 269 270 271 271 271 272 272 272 272 273 274 275 274 275 275 277 282 284 291 296 294 294 295 295 299 301 302 311 310 314 315 313 311 311
269 269 268 268 269 269 269 269 270 270 270 271 272 272 273 273 274 275 274 274 274 274 274 275 277 281 282 289 291 294 288 290 291 298 298 303 314 315 315 311 308 307 311
267 267 267 268 268 268 270 272 272 272 271 271 271 272 272 273 274 276 277 278 278 275 274 274 276 277 280 286 291 291 289 287 285 294 298 301 315 315 316 316 310 310 311
266 266 267 267 267 267 270 272 273 272 272 272 272 272 273 274 275 275 277 278 278 280 280 279 277 278 280 283 289 289 288 286 286 289 290 287 312 313 315 314 309 309 310
266 266 266 266 267 267 270 271 272 272 272 272 272 272 272 274 275 276 276 276 277 277 278 279 279 280 284 286 286 289 288 286 285 287 288 285 307 310 314 314 308 309 309
265 264 266 265 265 265 269 271 272 271 271 272 273 273 273 273 275 276 275 275 277 279 280 281 281 283 287 288 290 287 285 285 284 285 289 290 295 307 309 308 309 308 307
264 265 265 265 265 265 269 271 272 272 271 272 273 274 275 274 276 277 276 276 275 278 278 278 280 281 284 288 288 288 286 283 284 284 290 289 304 305 301 305 308 307 307
Wind_Speed
5 5 6 6 6 7 7 8 8 9 9 10 10 11 12 13 12 8 8 13 17 22 24 25 26 27 27 23 22 24 25 25 27 25 27 27 28 27 27 26 25 24 23
5 5 6 6 7 8 8 8 9 9 9 10 11 12 13 12 14 14 11 11 16 20 24 24 27 28 29 27 25 23 26 27 28 28 30 29 27 29 28 28 27 25 24
5 7 6 7 7 8 10 9 9 9 9 9 12 12 12 13 12 14 13 11 14 16 19 25 26 29 29 30 28 26 25 28 29 30 32 32 30 31 29 29 28 27 26
6 6 6 6 7 8 8 8 9 10 10 10 11 11 11 13 15 15 14 12 12 12 12 19 24 26 30 30 31 29 26 28 30 32 33 34 33 31 31 30 29 29 27
6 6 6 6 7 7 7 7 8 9 10 11 12 13 13 13 15 13 17 17 17 15 12 17 20 23 24 30 32 33 30 27 30 33 34 36 34 34 33 33 32 30 29
5 6 6 7 7 7 7 7 9 9 11 11 13 15 13 13 13 13 15 14 14 16 16 17 13 13 24 28 31 32 33 30 29 32 36 38 37 36 35 35 34 32 31
6 6 6 7 7 7 8 9 9 11 8 10 12 12 12 15 12 11 10 10 13 13 15 15 11 11 11 24 29 32 35 33 31 31 35 38 39 39 39 38 36 35 34
6 6 7 8 8 7 8 8 9 8 8 5 8 11 10 13 3 11 13 13 16 13 14 16 17 16 14 13 17 28 33 35 33 30 33 38 41 41 41 41 40 39 37
6 7 8 9 8 7 7 8 8 9 8 8 7 6 7 8 17 6 13 13 15 12 13 15 19 17 15 14 19 22 27 30 33 33 32 36 42 43 43 42 41 41 39
8 8 9 9 8 7 9 8 7 8 9 10 7 8 11 11 7 16 8 13 15 17 17 14 15 17 18 14 18 22 20 26 29 31 33 35 39 42 43 44 45 44 41
9 8 9 9 10 8 9 10 11 11 10 10 10 10 11 11 14 12 20 15 13 13 14 17 16 15 18 16 14 17 23 27 26 29 31 34 36 41 53 52 46 45 44
7 9 9 10 10 10 10 10 11 13 13 13 12 12 12 10 10 12 14 22 20 15 14 15 17 15 15 15 21 24 26 27 29 29 31 33 35 35 35 53 49 46 44
7 9 9 10 9 11 11 12 13 14 14 14 16 13 12 13 13 13 13 15 19 16 14 15 14 16 16 13 14 16 20 23 26 32 31 31 29 32 33 25 41 44 43
9 9 9 10 12 13 13 13 12 12 14 14 19 16 13 13 13 13 14 13 17 19 17 23 14 16 17 15 19 23 18 24 27 27 35 33 30 31 33 34 37 39 42
7 10 11 11 12 13 14 14 12 15 15 16 17 18 16 13 13 14 14 15 15 19 20 16 16 16 15 16 17 18 19 21 17 21 34 32 31 32 34 41 41 38 41
9 10 10 11 12 13 14 14 13 15 16 14 13 19 17 15 16 14 14 14 16 17 21 14 15 20 21 17 21 20 17 14 19 24 29 34 33 36 35 37 39 44 45
9 10 10 10 12 13 14 14 15 16 18 19 19 20 22 21 15 14 14 15 15 15 20 17 17 18 21 23 22 17 11 13 12 24 22 34 30 32 34 37 39 45 47
8 9 10 11 12 13 13 14 16 16 18 20 20 21 22 16 21 18 15 19 16 18 17 22 17 17 21 24 23 17 11 8 11 16 21 38 34 33 35 36 39 44 44
8 8 9 11 12 13 14 14 15 17 18 19 20 21 22 21 20 16 18 17 15 14 16 16 18 16 15 19 14 13 13 12 10 18 18 23 33 35 38 41 41 44 40
8 9 9 11 12 13 14 14 15 17 19 19 21 21 22 21 21 21 18 18 16 16 16 15 16 16 14 21 10 10 10 7 9 9 12 19 27 32 40 43 43 41 41
6 9 10 11 12 12 10 14 17 19 21 22 21 21 21 23 30 28 16 17 18 15 15 15 14 15 14 15 10 7 5 7 11 9 9 17 17 20 25 41 37 41 42
7 8 10 10 12 10 19 23 23 18 20 21 20 20 21 24 24 33 34 37 29 19 20 15 15 16 16 16 8 8 7 6 9 1 10 17 18 20 23 25 42 45 44
7 8 9 10 13 14 21 25 27 18 19 20 21 20 18 16 22 20 27 34 32 34 34 23 21 20 18 16 13 8 4 3 8 9 10 16 15 18 22 25 44 43 45
6 8 10 11 12 12 22 25 28 20 18 21 20 20 21 21 21 21 20 21 22 22 22 18 21 20 22 19 17 8 3 5 8 9 6 9 18 17 18 20 46 46 40
6 8 9 12 13 15 23 26 25 18 18 20 19 20 20 21 27 33 23 22 23 18 22 34 35 36 36 32 20 5 6 6 10 11 3 10 18 16 16 18 23 38 39
7 7 11 11 15 15 22 25 24 14 18 16 20 20 25 23 31 32 22 19 19 20 17 17 17 22 25 23 31 19 7 9 9 11 10 12 15 16 14 14 19 16 16
Wind_Direction
12 356 350 344 339 337 335 328 328 327 322 314 306 301 300 298 291 286 285 285 283 285 281 267 266 268 267 262 257 248 238 229 228 209 203 195 192 186 184 183 185 184 181
360 346 345 340 336 341 334 324 326 323 315 313 307 302 296 289 288 285 283 283 276 275 274 275 267 263 263 264 260 252 246 232 226 215 202 201 197 187 185 186 186 185 182
351 346 337 333 337 332 321 320 322 318 315 310 303 302 297 292 286 287 285 281 282 270 262 266 266 265 260 259 261 258 250 243 233 220 206 200 198 186 187 188 187 185 183
349 339 330 321 328 316 319 320 324 322 314 310 305 302 298 294 290 283 279 277 275 277 276 270 265 259 260 256 257 258 253 246 238 227 211 202 192 191 188 190 189 185 182
330 320 306 303 314 310 311 315 315 313 311 310 306 302 295 290 287 283 278 277 276 273 273 270 263 270 265 256 253 254 254 248 241 233 214 206 194 193 191 190 189 185 183
291 299 305 306 302 298 302 312 308 310 305 305 306 299 290 285 276 275 277 279 275 274 277 275 274 261 250 250 250 250 251 250 242 236 227 210 197 193 193 189 188 185 182
291 297 294 295 290 294 310 311 307 308 309 315 307 313 296 277 268 265 277 284 285 277 274 279 275 272 268 246 240 242 246 247 245 237 231 220 203 195 193 188 187 186 185
284 292 298 295 290 292 299 308 315 306 301 307 315 298 318 308 179 327 294 284 287 294 283 283 280 280 275 273 254 234 239 241 243 240 234 225 212 200 192 189 188 186 186
288 285 278 279 290 301 299 294 294 296 293 296 289 286 309 300 328 302 316 289 289 290 284 285 279 286 284 269 265 253 237 233 237 238 235 230 220 205 194 192 190 187 185
293 281 283 286 294 286 279 281 283 282 284 278 285 239 250 282 298 311 295 301 298 280 278 277 278 280 275 272 287 281 247 230 231 234 238 233 224 220 201 194 192 185 184
282 287 283 285 279 274 278 280 281 275 271 273 270 272 274 263 261 270 290 292 284 280 283 267 265 267 267 270 274 271 296 250 235 230 232 237 231 220 201 191 191 185 182
289 277 269 272 277 282 280 284 283 278 278 274 273 270 265 260 264 266 267 288 285 285 281 279 282 278 268 263 260 260 267 276 275 231 228 232 234 221 230 200 185 184 180
269 267 284 292 295 297 295 289 282 277 275 273 271 270 266 262 266 265 264 269 282 284 279 272 274 269 273 261 265 267 266 269 285 255 228 227 230 226 213 209 194 181 176
272 291 293 291 291 295 293 288 283 277 274 273 271 267 267 260 256 257 253 262 277 279 277 275 263 259 270 263 258 256 258 258 261 283 237 223 220 219 197 201 204 180 175
281 292 292 295 296 291 287 285 279 280 279 276 272 271 267 264 258 256 258 254 259 272 270 275 274 271 262 264 259 255 254 252 253 281 261 215 208 209 194 187 187 186 181
283 286 291 296 297 293 289 286 284 280 278 275 273 273 268 265 262 257 255 258 251 254 273 272 260 269 277 274 267 256 248 263 269 273 291 214 206 204 197 191 185 183 181
283 289 299 299 295 293 291 287 283 282 278 277 274 272 270 269 265 260 258 258 257 262 266 266 271 280 277 281 262 249 251 259 268 260 291 211 200 196 193 196 195 185 174
289 298 306 299 293 291 293 291 290 286 284 283 282 279 276 275 270 267 263 262 262 262 269 277 278 261 265 272 260 254 252 248 263 267 273 229 198 193 185 180 179 170 167
294 300 297 295 298 299 297 293 291 289 288 285 283 280 278 275 272 269 262 264 267 269 270 267 266 272 273 277 256 256 261 257 258 265 245 281 195 191 188 187 183 172 163
301 299 295 292 292 295 297 296 294 294 289 284 281 276 274 270 269 269 263 264 261 260 261 265 269 269 259 270 265 268 262 266 262 245 269 257 219 188 184 179 171 169 162
289 286 293 297 298 300 295 301 298 294 290 289 284 279 274 270 268 263 261 258 259 260 260 263 258 260 265 264 253 256 276 295 302 290 280 280 215 188 180 173 169 166 166
283 295 296 304 306 303 304 302 300 296 296 294 290 285 282 277 268 267 264 261 257 254 258 261 271 272 269 279 269 264 276 287 306 181 310 267 201 188 182 175 172 171 171
299 298 302 308 306 304 304 306 308 299 297 295 292 290 285 275 273 266 266 266 267 266 262 264 262 257 266 272 284 257 246 251 266 290 319 290 195 185 176 175 170 173 172
300 309 311 304 299 304 308 309 306 304 297 291 290 288 284 279 274 270 266 262 258 250 253 260 261 263 261 259 269 267 237 264 273 278 262 275 245 175 180 172 170 166 164
311 301 298 304 304 301 304 307 310 303 292 297 290 287 280 276 276 276 274 272 270 253 253 257 260 256 267 252 240 229 240 259 282 286 222 246 267 154 161 157 159 157 157
297 303 310 307 298 292 292 310 309 299 297 297 289 280 277 277 276 277 274 275 273 274 251 256 257 259 260 249 248 246 220 251 275 300 259 256 211 150 148 160 156 153 152